SL-16 DEB

Satellite information

Favourite Embed

Satellite Type and Status

DEBRISIN ORBIT

Key statistics

Satellite SL-16 DEB at a glance.

Uptime

12041

Days in orbit

Revolutions

≈ 14.2

Per day

Orbit

LEO

Low Earth Orbit

Inclination

71.0

Latest

Satellite identification and parameters

Extended collection of information and parameters for SL-16 DEB.

Object identification

Identified? True

Debris? True

Object name: SL-16 DEB

International designator: 1992-093CD

Object number (NORAD): 22388

Object ID (CCSDS): 22388

Country: COMMONWEALTH OF INDEPENDENT STATES (CIS)

Current information (Y/N): Y

RCS size: SMALL

Orbital parameters

Period: 101.576 minutes

Inclination: 70.9642 deg

SMA: 7211.426 km

Apoapsis: 903.569 km

Periapsis: 763.013 km

RAAN: 227.6206 deg

Eccentricy: 0.0097453

Argument of periapsis: 179.8333 deg

Mean anomaly: 306.7163 deg

Mean motion: 14.17656569 rev/day

Mean motion (dot): 0.00002844 rev/day2

B* drag term: 0.0013553 1/REarth

Two-line elements (TLE)

Creation date: Dec. 12, 2025, 7:26 a.m.

Reference frame: TEME

Reference center: EARTH

Epoch: Dec. 11, 2025, 8:44 p.m. UTC

TLE line 0: 0 SL-16 DEB

TLE line 1: 1 22388U 92093CD 25345.86430333 .00002844 00000-0 13553-2 0 9992

TLE line 2: 2 22388 70.9642 227.6206 0097453 179.8333 306.7163 14.17656569685858

Live tracking on map

Real-time ground track for satellite SL-16 DEB.

In-orbit conjunctions

A list of the most updated potential collisions computed for object SL-16 DEB.

Target Orbit TCA Probability of collision Miss distance Type
COSMOS 660 LEO 2025-11-22 10:25:23 0.0005593359 176.0 (m) PAYLOAD
CZ-6A DEB SSO 2025-08-22 17:49:26 0.0001159971 50.0 (m) DEBRIS
ARIANE 40 R/B SSO 2025-05-31 09:34:29 0.0003391583 179.0 (m) ROCKET BODY
SPOT 5 SSO 2024-09-04 23:43:02 0.001672898 147.0 (m) PAYLOAD
CZ-6A DEB SSO 2024-06-06 03:46:12 0.0001542574 128.0 (m) DEBRIS

Associated space launch

Second generation ELING satellite

SL-16 DEB was lifted into orbit during the mission ‘Zenit-2 | Tselina-2 12’, on board a Zenit-2 space rocket.

The launch took place on Dec. 25, 1992, 5:56 a.m. from 45/1.

For more information about the launch, click the button.

Launch to space Zenit-2 | Tselina-2 12
Zenit-2 | Tselina-2 12

Agency: N/A

Status: Launch Successful

Launch date: Dec. 25, 1992, 5:56 a.m. UTC

Rocket: Zenit-2

Launch pad: 45/1

Location: Baikonur Cosmodrome, Republic of Kazakhstan

...

Latest news about this satellite

There are no fresh news available about this satellite. Check back as we update our databases every day.


Newsletter sign-up

Weekly statistics, charts and insights to help you stay on top of the space industry.